Showing default

BUCCANEER MM, 63245

Orbit data source: Space-Track

BUCCANEER MM, 63245 is an Australian payload satellite in SSO that was launched on Sat, 15 Mar 2025 UTC via an FALCON 9 launch vehicle from the Air Force Western Test Range (AFWTR). Payload-class satellites include a variety of spacecraft equipped with specific instruments for various scientific and technological missions. These include communications satellites like Starlink; space stations such as the ISS; scientific satellites like the Hubble; Earth observation satellites from companies like Planet Labs, Umbra, and HawkEye 360; GPS; miniature CubeSats for education and research; and military/defense satellites.

Loading next visibility...
Identifier
63245, 2025-052AM
Orbit
SSO
Country
Flag of AUAU / AUS
Related business
Manufacturer
U. NSW
Mission
Operational Amateur Technology
Bus & Motor
CUBESAT 6U, Unknown motor
Mass
~10 kg wet, ~10 kg dry
Launch date (UTC)
2025-03-15 (1 year ago)
Launch vehicle
FALCON 9
Launch site
Air Force Western Test Range (AFWTR)
Object type
Payload
Rocket body
Debris
Shape & HBR
Box + 2 Ant, 0.2 m
Radar Cross Section
0.160 m², Medium (>0.1 m² and < 1m²)

Expand to show TLE details & history
Last TLE update: 14 hours ago

TLE from 14 hours ago
0 BUCCANEER MM
1 63245U 25052AM  26206.65810918  .00003108  00000-0  29036-3 0  9993
2 63245  97.6823  96.8765 0005894  85.9041 274.2853 14.94860323 74340
Epoch: 2026-07-25T15:47Z
TLE epoch observation values (Epoch: 2026-07-25T15:47:40.633Z)
Latitude
-0.00003°
Longitude
-83.41003°
Altitude
585.55 km
Speed
7.568 km/s
True Right ascension
06h 27m 30s
True Declination
0° 00' 00"
Sunlit
Object was in daylight at epoch
Visualization orbit readout
Latitude
Unknown
Longitude
Unknown
Altitude
Unknown
Speed
Unknown
Apparent Right ascension
Unknown
Apparent Declination
Unknown
Sunlit
N/A
Visualization observer readout
Local Sidereal Time
19:21:49
Azimuth
Unknown
Elevation
Unknown
Doppler factor
Unknown
Orbital elements
Apogee altitude
583.919 km
Perigee altitude
575.717 km
Semi-major axis
6,957.955 km
Eccentricity
0.00059
Inclination
97.6823°
RAAN
96.8765°
Arg. of periapsis
85.9041°
True anomaly
274.21794°
Mean anomaly
274.2853°
Eccentric anomaly
274.25162°
Mean motion
3.73956 °/min
Orbital period
96.27 mins
BSTAR
0.00029036
Loading maneuver chart data...
Computing Atmospheric mass density...
Loading historical data...
Loading historical data...
Loading historical data...
Loading historical data...
Loading historical data...
Loading historical data...
Loading historical data...

Documentation

Showing up to 5 results
|